Terminal Aerodrome Forecast
Issued by NWS

Current Version | Previous Version | Graphics & Text | Print | Product List | Glossary On
Versions: 1 2 3 4 5 6 7 8 9 10 11 12 13 14 15 16 17 18 19 20 21 22 23
000
FTUS41 KRLX 261526 AAA
TAFCKB
TAF AMD
KCKB 261526Z 2615/2712 VRB03KT P6SM SCT015
     FM261600 VRB03KT P6SM FEW080
     FM270000 VRB03KT P6SM BKN200=

USA.gov is the U.S. government's official web portal to all federal, state and local government web resources and services.